Date,TemperatureHighF,TemperatureAvgF,TemperatureLowF,DewpointHighF,DewpointAvgF,DewpointLowF,HumidityHigh,HumidityAvg,HumidityLow,PressureMaxIn,PressureMinIn,WindSpeedMaxMPH,WindSpeedAvgMPH,GustSpeedMaxMPH,PrecipitationSumIn
2013-8-1,69,61,56,61,58,55,97,88,68,29.85,29.79,10,4,16,0.29
2013-8-2,67,60,53,61,57,52,96,87,74,29.83,29.75,14,4,20,0.12
2013-8-3,66,60,55,57,54,53,94,83,67,30.00,29.84,20,8,26,0.00
2013-8-4,68,61,56,55,52,49,91,73,55,30.13,30.00,17,9,25,0.00
2013-8-5,68,60,48,59,53,46,94,81,61,30.07,29.88,14,4,18,0.00
2013-8-6,69,64,60,64,61,57,94,89,82,29.88,29.75,12,4,17,0.02
2013-8-7,72,66,60,67,63,57,97,89,77,29.88,29.62,20,6,21,1.55
2013-8-8,71,63,56,58,55,50,94,77,49,30.01,29.89,12,4,18,0.00
2013-8-9,71,61,55,63,55,48,94,80,68,29.98,29.81,25,5,30,0.01
2013-8-10,69,60,50,56,52,47,92,76,59,30.09,29.98,13,6,20,0.01
2013-8-11,71,61,51,61,55,49,96,81,56,30.07,29.96,11,3,16,0.00
2013-8-12,69,62,58,63,59,55,96,90,72,29.97,29.80,14,3,20,0.10
2013-8-13,58,55,53,55,49,47,88,79,72,30.04,29.82,24,16,29,0.10
2013-8-14,65,59,53,54,51,48,89,76,54,30.11,30.04,15,8,22,0.00
2013-8-15,72,62,54,59,54,52,94,76,51,30.05,29.99,14,6,19,0.00
2013-8-16,75,62,50,61,54,49,95,77,43,30.16,30.05,10,3,12,0.00
2013-8-17,77,65,52,63,57,49,94,75,53,30.23,30.12,12,4,14,0.00
2013-8-18,80,69,55,60,56,53,94,66,44,30.16,30.02,14,4,20,0.00
2013-8-19,77,68,58,63,59,54,90,74,60,30.03,29.91,12,4,16,0.00
2013-8-20,82,71,66,69,59,-100,90,75,62,29.98,29.91,12,-10,18,0.00
2013-8-21,85,75,66,71,67,62,90,75,58,29.96,29.79,14,4,24,0.00
2013-8-22,77,71,65,68,59,50,92,69,41,30.04,29.81,16,7,22,0.00
2013-8-23,72,65,60,60,57,51,88,76,49,30.18,30.04,11,4,13,0.00
2013-8-24,71,64,51,63,59,50,96,84,73,30.28,30.16,12,4,15,0.00
2013-8-25,70,66,64,69,59,-100,96,83,73,30.16,29.91,18,-8,26,0.49
2013-8-26,81,71,67,72,61,-100,96,83,75,29.96,29.86,16,-22,23,0.01
2013-8-27,79,69,64,72,67,63,98,92,77,29.88,29.80,7,2,10,0.01
2013-8-28,82,69,60,72,66,59,98,90,69,29.97,29.82,9,2,10,0.01
2013-8-29,80,69,61,72,66,61,97,89,70,30.02,29.89,7,2,11,0.01
2013-8-30,73,70,67,70,67,64,96,89,75,29.89,29.66,16,4,19,0.42
2013-8-31,71,65,59,65,61,58,95,87,75,29.85,29.78,12,4,16,0.42